Location: ??????
(56.0120°N, 39.1740°E)
Time: 18:23:08
(UTC+00:00)

Cosmos 1356 Rocket - Pass Details

Date: 14 April 2026
Orbit: 514 x 556 km, 81.1° (Epoch: 19 May)

Event Time Altitude Azimuth Distance (km) Brightness Sun altitude
Exits shadow 20:15:28 78° 68° (ENE) 574 3.3 -22.8°
Drops below altitude 10° 20:19:22 10° 17° (NNE) 1,838 6.7 -23.0°
Sets 20:21:32 0° 16° (NNE) 2,731 7.8 -23.1°
